Location: *
(6.0000°S, 32.3997°W)
Time: 19:39:51
(UTC+00:00)

In-Cosmos 22 - Pass Details

Date: 01 April 2020
Orbit: 784 x 877 km, 81.2° (Epoch: 27 May)

Event Time Altitude Azimuth Distance (km) Brightness Sun altitude
Rises 20:53:21 0° 354° (N) 3,327 7.4 -10.5°
Reaches altitude 10° 20:55:45 10° 354° (N) 2,386 6.7 -11.1°
Maximum altitude 21:01:08 86° 266° (W) 804 4.1 -12.4°
Drops below altitude 10° 21:06:27 10° 176° (S) 2,356 6.5 -13.7°
Sets 21:08:49 0° 175° (S) 3,282 7.2 -14.3°
